Location: Poughquag
(41.6090°N, 73.6820°W)
Time: 20:25:34
(UTC-04:00)

MOZHAYETS 4 - Pass Details

Date: 16 August 2024
Orbit: 650 x 668 km, 98.3° (Epoch: 15 September)

Event Time Altitude Azimuth Distance (km) Brightness Sun altitude
Rises 03:19:15 0° 128° (SE) 3,003 11.1 -26.1°
Reaches altitude 10° 03:21:56 10° 112° (ESE) 2,095 10.4 -25.8°
Maximum altitude 03:25:17 20° 65° (ENE) 1,522 10.2 -25.4°
Drops below altitude 10° 03:28:38 10° 18° (NNE) 2,106 11.2 -25.0°
Sets 03:31:20 0° 2° (N) 3,023 11.8 -24.6°
